Location: Cucq
(50.4773°N, 1.6202°E)
Time: 09:30:36
(UTC+00:00)

Cosmos 1805 - Pass Details

Date: 07 August 2020
Orbit: 526 x 530 km, 82.5° (Epoch: 20 September)

Event Time Altitude Azimuth Distance (km) Brightness Sun altitude
Exits shadow 01:23:25 29° 126° (SE) 986 4.4 -20.7°
Maximum altitude 01:24:28 35° 92° (E) 873 4.4 -20.6°
Drops below altitude 10° 01:28:02 10° 26° (NNE) 1,781 7.1 -20.4°
Sets 01:30:18 0° 18° (NNE) 2,676 8.4 -20.3°
